Hourly Weather Roundup
Issued by NWS Central Illinois

Home | Current Version | Previous Version | Text Only | Print | Product List | Glossary On
Versions: 1 2 3 4 5 6 7 8 9 10 11 12 13 14 15 16 17 18 19 20 21 22 23 24 25 26 27 28 29 30 31 32 33 34 35 36 37 38 39 40 41 42 43 44 45 46 47 48 49 50
000
NZUS43 KILX 300210
HWRILX

AREA WEATHER ROUNDUP
NATIONAL WEATHER SERVICE, LINCOLN IL
900 PM CDT TUE JUL 29 2014


CITY           SKY/WX    TMP DP  RH WIND       PRES   REMARKS
BLOOMINGTON    CLEAR     68  57  67 W6        30.06S
CHAMPAIGN      CLEAR     63  59  87 W7        30.05S
DECATUR        CLEAR     71  57  61 W6        30.06S
FLORA          CLEAR     62  57  85 W3        30.07R
GALESBURG      CLEAR     67  59  76 CALM      30.05S
JACKSONVILLE   CLEAR     67  61  81 CALM      30.07F
LACON          CLEAR     67  57  72 CALM      30.03S
LAWRENCEVILLE  CLEAR     67  61  81 CALM      30.06R
LITCHFIELD     CLEAR     63  59  87 CALM      30.07S
$$


CITY           SKY/WX    TMP DP  RH WIND       PRES   REMARKS
LINCOLN        CLEAR     70  59  66 CALM      30.03S
MACOMB         CLEAR     64  61  88 W5        30.08S
MATTOON        CLEAR     67  55  65 W3        30.06R
MT CARMEL AP   CLEAR     66  63  88 CALM      30.06S
OLNEY-NOBLE AP CLEAR     61  61 100 CALM      30.07R
PARIS          CLEAR     64  59  86 W5        30.06S
PEORIA         CLEAR     70  58  65 CALM      30.05S
PONTIAC        CLEAR     64  63  94 CALM      30.04R
RANTOUL        CLEAR     68  58  70 CALM      30.06R
ROBINSON       CLEAR     64  60  85 CALM      30.07R
SPRINGFIELD    CLEAR     66  61  84 SW3       30.06S
TAYLORVILLE    CLEAR     64  59  82 W3        30.06S
$$

...REGIONAL REPORTS...


CITY           SKY/WX    TMP DP  RH WIND       PRES   REMARKS
CHICAGO O`HARE MOCLDY    72  56  57 W9        29.99S
KANKAKEE       CLOUDY    65  58  78 W6        30.03R
MOLINE         CLEAR     67  58  72 SW5       30.04R
MOUNT VERNON   CLEAR     63  55  77 CALM      30.08R
PITTSFIELD     CLEAR     65  61  85 CALM      30.08S
QUINCY         CLEAR     68  59  73 CALM      30.06F
ROCKFORD       MOCLDY    70  54  56 NW12      30.03S
$$


CITY           SKY/WX    TMP DP  RH WIND       PRES   REMARKS
BURLINGTON     CLEAR     65  61  87 CALM      30.05F
CEDAR RAPIDS   CLEAR     64  59  83 W6        30.05S
DES MOINES     PTCLDY    71  54  54 NW5       30.07S
KIRKSVILLE     CLEAR     64  59  83 CALM      30.09S
OTTUMWA        CLEAR     67  57  70 NW5       30.06F
ST LOUIS       PTCLDY    74  55  51 CALM      30.07F
$$


CITY           SKY/WX    TMP DP  RH WIND       PRES   REMARKS
TERRE HAUTE    CLEAR     65  57  75 SW5       30.06R
EVANSVILLE     CLEAR     70  58  65 CALM      30.07R
INDIANAPOLIS   MOCLDY    61  59  93 S6        30.04F
LAFAYETTE      RAIN      62  61  96 SW5       30.03F
MADISON        CLOUDY    65  58  78 N3        30.04R
MILWAUKEE      TSTM      62  57  83 NW10      30.04R
$$




USA.gov is the U.S. government's official web portal to all federal, state and local government web resources and services.